Elmira, NY

4:39 PM EDT on April 28, 2017 (GMT -0400)
Elmira-Corning Regional

Weather History for KELM - May, 2013

Change the Weather History Date:

Monday, May 6, 2013

  Actual Average Record
Temperature  
Mean Temperature 54 °F -  
Max Temperature 75 °F 66 °F 95 °F (1949)
Min Temperature 34 °F 39 °F 24 °F (1974)
Degree Days  
Heating Degree Days 10    
Growing Degree Days 4 (Base 50)    
Moisture  
Dew Point 39 °F    
Average Humidity 54    
Maximum Humidity 86    
Minimum Humidity 23    
Precipitation  
Precipitation 0.00 in - - ()
Sea Level Pressure  
Sea Level Pressure 30.13 in    
Wind  
Wind Speed 3 mph (SSW)    
Max Wind Speed 13 mph    
Max Gust Speed -    
Visibility 10 miles    
Events      
Averages and records for this station are not official NWS values.
T = Trace of Precipitation, MM = Missing Value Source: NWS Daily Summary

Daily Weather History Graph

Daily Weather History Graph

Search for Another Location

Airport or City:

Trip Planner

Search our weather history database for the weather conditions in past years. The results will help you decide how hot, cold, wet, or windy it might be!

Date:

Astronomy

May. 06, 2013 Rise Set
Actual Time 5:56 AM EDT 8:12 PM EDT
Civil Twilight 5:25 AM EDT 8:43 PM EDT
Nautical Twilight 4:47 AM EDT 9:22 PM EDT
Astronomical Twilight 4:04 AM EDT 10:04 PM EDT
Moon 4:00 AM EDT (5/6) 5:07 PM EDT (5/6)
Length of Visible Light 15h 18m
Length of Day
14h 16m
Waning Crescent, 11% of the Moon is Illuminated
May 6
Waning Crescent
May 9
New
May 18
First Quarter
May 25
Full
May 31
Last Quarter

Hourly Weather History & Observations

Time (EDT) Temp. Dew Point Humidity Pressure Visibility Wind Dir Wind Speed Gust Speed Precip Events Conditions
12:53 AM 45.0 °F 34.0 °F 65% 30.17 in 10.0 mi Calm Calm - N/A   Clear
1:53 AM 39.0 °F 33.1 °F 79% 30.17 in 10.0 mi Calm Calm - N/A   Clear
2:53 AM 36.0 °F 32.0 °F 86% 30.17 in 10.0 mi Calm Calm - N/A   Clear
3:53 AM 37.9 °F 32.0 °F 79% 30.17 in 10.0 mi Calm Calm - N/A   Clear
4:53 AM 36.0 °F 32.0 °F 86% 30.18 in 10.0 mi Calm Calm - N/A   Clear
5:53 AM 34.0 °F 30.0 °F 85% 30.19 in 10.0 mi Calm Calm - N/A   Clear
6:53 AM 37.9 °F 33.1 °F 83% 30.20 in 10.0 mi Calm Calm - N/A   Clear
7:53 AM 46.0 °F 37.0 °F 71% 30.20 in 10.0 mi Calm Calm - N/A   Clear
8:53 AM 54.0 °F 39.9 °F 59% 30.20 in 10.0 mi ENE 3.5 mph - N/A   Clear
9:53 AM 57.9 °F 37.0 °F 46% 30.19 in 10.0 mi Variable 4.6 mph - N/A   Clear
10:53 AM 62.1 °F 37.9 °F 41% 30.19 in 10.0 mi Variable 5.8 mph - N/A   Clear
11:53 AM 66.9 °F 37.9 °F 34% 30.17 in 10.0 mi ENE 6.9 mph - N/A   Clear
12:53 PM 70.0 °F 36.0 °F 29% 30.14 in 10.0 mi Variable 6.9 mph - N/A   Clear
1:53 PM 72.0 °F 36.0 °F 27% 30.12 in 10.0 mi SE 9.2 mph - N/A   Clear
2:53 PM 75.0 °F 35.1 °F 23% 30.09 in 10.0 mi Calm Calm - N/A   Clear
3:53 PM 75.0 °F 37.0 °F 25% 30.06 in 10.0 mi WSW 6.9 mph - N/A   Clear
4:53 PM 73.9 °F 44.1 °F 34% 30.05 in 10.0 mi Variable 6.9 mph - N/A   Partly Cloudy
5:53 PM 73.9 °F 45.0 °F 35% 30.06 in 10.0 mi SSW 9.2 mph - N/A   Clear
6:53 PM 73.0 °F 45.0 °F 37% 30.06 in 10.0 mi SSW 8.1 mph - N/A   Clear
7:53 PM 70.0 °F 46.0 °F 42% 30.06 in 10.0 mi SW 12.7 mph - N/A   Clear
8:53 PM 64.9 °F 46.0 °F 50% 30.07 in 10.0 mi SW 5.8 mph - N/A   Clear
9:53 PM 61.0 °F 46.0 °F 58% 30.09 in 10.0 mi WSW 4.6 mph - N/A   Clear
10:53 PM 62.1 °F 46.9 °F 58% 30.10 in 10.0 mi West 6.9 mph - N/A   Clear
11:53 PM 62.1 °F 48.0 °F 60% 30.10 in 10.0 mi SSW 5.8 mph - N/A   Clear